CommID,deviceName,DataDateTime,GPSLatitude,GPSLongitude,Submerged,gpsQuality,BatteryVoltage,SST,IridiumLatitude,IridiumLongitude,IridiumRadiusKm,orgName,bPressTend,windDir,windSpeed,bPress,SurfaceSalinity,temperature7m,salinity7m,temperature15m,salinity15m
300234011884250,UAFSFOS-MS-0011 ,10/17/2012 12:00:06 AM,71.132903,-154.837268,True,3,8.5,1.15,71.875600,-154.553680,3,UAF SFOS,,,,,,,,,
300234011884250,UAFSFOS-MS-0011 ,10/16/2012 9:00:08 AM,71.252202,-154.811429,False,3,9.0,2.00,71.140020,-154.557560,2,UAF SFOS,,,,,,,,,
300234011884250,UAFSFOS-MS-0011 ,10/16/2012 8:00:08 AM,71.263391,-154.819570,False,3,9.0,2.10,71.791300,-152.581800,117,UAF SFOS,,,,,,,,,
300234011884250,UAFSFOS-MS-0011 ,10/16/2012 7:00:06 AM,71.271086,-154.817307,False,3,9.0,2.00,71.149800,-154.468640,2,UAF SFOS,,,,,,,,,
300234011884250,UAFSFOS-MS-0011 ,10/16/2012 5:00:08 AM,71.278514,-154.813979,True,3,9.0,2.00,71.158470,-154.529200,3,UAF SFOS,,,,,,,,,
300234011884250,UAFSFOS-MS-0011 ,10/16/2012 4:00:08 AM,71.280877,-154.814437,False,3,9.0,2.05,71.175130,-154.440090,70,UAF SFOS,,,,,,,,,
300234011884250,UAFSFOS-MS-0011 ,10/16/2012 3:00:06 AM,71.282550,-154.819257,True,3,9.0,2.10,71.175130,-154.440090,3,UAF SFOS,,,,,,,,,
300234011884250,UAFSFOS-MS-0011 ,10/16/2012 1:00:08 AM,71.284380,-154.832151,False,3,9.0,2.20,71.183810,-154.500740,6,UAF SFOS,,,,,,,,,
300234011884250,UAFSFOS-MS-0011 ,10/16/2012 12:00:08 AM,71.284494,-154.836387,True,3,9.0,2.20,71.156710,-154.468640,3,UAF SFOS,,,,,,,,,
300234011884250,UAFSFOS-MS-0011 ,10/15/2012 11:01:07 PM,71.284275,-154.840045,False,3,9.0,2.20,71.175130,-154.440090,5,UAF SFOS,,,,,,,,,
300234011884250,UAFSFOS-MS-0011 ,10/15/2012 10:00:37 PM,71.283747,-154.841590,False,3,9.0,2.25,71.149800,-154.468640,4,UAF SFOS,,,,,,,,,
300234011884250,UAFSFOS-MS-0011 ,10/15/2012 9:00:07 PM,71.283794,-154.841262,False,3,9.0,2.40,71.145700,-155.317020,73,UAF SFOS,,,,,,,,,
300234011884250,UAFSFOS-MS-0011 ,10/15/2012 8:00:37 PM,71.284433,-154.839870,False,3,9.0,2.40,71.175130,-154.440090,2,UAF SFOS,,,,,,,,,
300234011884250,UAFSFOS-MS-0011 ,10/15/2012 7:00:07 PM,71.285502,-154.839015,False,3,9.0,2.40,71.165370,-154.529200,2,UAF SFOS,,,,,,,,,
300234011884250,UAFSFOS-MS-0011 ,10/15/2012 6:00:05 PM,71.286294,-154.838095,False,3,9.0,2.45,71.158470,-154.529200,2,UAF SFOS,,,,,,,,,
300234011884250,UAFSFOS-MS-0011 ,10/15/2012 4:00:38 PM,71.285683,-154.831418,False,3,9.0,2.50,71.183810,-154.500740,11,UAF SFOS,,,,,,,,,
300234011884250,UAFSFOS-MS-0011 ,10/15/2012 3:00:56 PM,71.285069,-154.831357,False,3,9.0,2.50,71.175130,-154.440090,2,UAF SFOS,,,,,,,,,
300234011884250,UAFSFOS-MS-0011 ,10/15/2012 2:00:20 PM,71.284525,-154.832454,True,3,9.0,2.50,71.149800,-154.468640,2,UAF SFOS,,,,,,,,,
300234011884250,UAFSFOS-MS-0011 ,10/15/2012 1:00:09 PM,71.283875,-154.831940,False,3,9.0,2.55,71.175130,-154.440090,4,UAF SFOS,,,,,,,,,
300234011884250,UAFSFOS-MS-0011 ,10/15/2012 12:00:37 PM,71.283258,-154.831132,True,3,9.0,2.55,71.149800,-154.468640,2,UAF SFOS,,,,,,,,,
300234011884250,UAFSFOS-MS-0011 ,10/15/2012 11:00:08 AM,71.282714,-154.834087,False,3,9.0,2.55,71.158470,-154.529200,3,UAF SFOS,,,,,,,,,
300234011884250,UAFSFOS-MS-0011 ,10/15/2012 10:01:01 AM,71.282430,-154.838845,False,3,9.0,2.55,71.165370,-154.529200,3,UAF SFOS,,,,,,,,,
300234011884250,UAFSFOS-MS-0011 ,10/15/2012 9:00:08 AM,71.283511,-154.837957,False,3,9.0,2.45,71.158470,-154.529200,6,UAF SFOS,,,,,,,,,
300234011884250,UAFSFOS-MS-0011 ,10/15/2012 8:00:08 AM,71.284425,-154.830582,False,3,9.0,2.50,71.119300,-150.792800,191,UAF SFOS,,,,,,,,,
300234011884250,UAFSFOS-MS-0011 ,10/15/2012 7:00:38 AM,71.285597,-154.828879,False,3,9.0,2.55,71.149800,-154.468640,9,UAF SFOS,,,,,,,,,
300234011884250,UAFSFOS-MS-0011 ,10/15/2012 6:01:01 AM,71.287844,-154.829395,True,3,9.0,2.60,71.158470,-154.529200,4,UAF SFOS,,,,,,,,,
300234011884250,UAFSFOS-MS-0011 ,10/15/2012 5:00:10 AM,71.291461,-154.831457,True,3,9.0,2.70,71.183810,-154.500740,5,UAF SFOS,,,,,,,,,
300234011884250,UAFSFOS-MS-0011 ,10/15/2012 4:00:37 AM,71.296125,-154.834698,False,3,9.0,2.75,71.192460,-154.561480,4,UAF SFOS,,,,,,,,,
300234011884250,UAFSFOS-MS-0011 ,10/15/2012 3:00:07 AM,71.300647,-154.843823,True,3,9.0,2.75,71.175130,-154.440090,3,UAF SFOS,,,,,,,,,
300234011884250,UAFSFOS-MS-0011 ,10/15/2012 2:00:08 AM,71.304552,-154.854418,True,3,9.0,2.80,71.192460,-154.561480,2,UAF SFOS,,,,,,,,,
300234011884250,UAFSFOS-MS-0011 ,10/15/2012 1:01:37 AM,71.308264,-154.867543,True,3,9.0,2.80,71.174000,-154.589860,3,UAF SFOS,,,,,,,,,
300234011884250,UAFSFOS-MS-0011 ,10/15/2012 12:00:37 AM,71.311705,-154.881879,False,3,9.0,2.80,71.244610,-156.179910,90,UAF SFOS,,,,,,,,,
300234011884250,UAFSFOS-MS-0011 ,10/14/2012 11:00:37 PM,71.315991,-154.893165,False,3,9.0,2.90,71.165370,-154.529200,4,UAF SFOS,,,,,,,,,
300234011884250,UAFSFOS-MS-0011 ,10/14/2012 10:00:09 PM,71.321019,-154.902307,True,3,9.0,2.95,71.183810,-154.500740,2,UAF SFOS,,,,,,,,,
300234011884250,UAFSFOS-MS-0011 ,10/14/2012 9:00:37 PM,71.325847,-154.913454,False,3,9.0,2.95,71.183810,-154.500740,2,UAF SFOS,,,,,,,,,
300234011884250,UAFSFOS-MS-0011 ,10/14/2012 8:00:54 PM,71.330336,-154.925440,True,3,9.0,3.00,71.183810,-154.500740,3,UAF SFOS,,,,,,,,,
300234011884250,UAFSFOS-MS-0011 ,10/14/2012 7:00:08 PM,71.334575,-154.939429,True,3,9.0,2.95,71.158470,-156.138040,83,UAF SFOS,,,,,,,,,
300234011884250,UAFSFOS-MS-0011 ,10/14/2012 6:02:04 PM,71.336525,-154.954712,True,3,9.0,2.95,71.201080,-155.223200,3,UAF SFOS,,,,,,,,,
300234011884250,UAFSFOS-MS-0011 ,10/14/2012 5:00:07 PM,71.337839,-154.972473,True,3,9.0,3.00,71.192460,-154.561480,2,UAF SFOS,,,,,,,,,
300234011884250,UAFSFOS-MS-0011 ,10/14/2012 4:01:38 PM,71.338591,-154.988962,True,3,9.0,2.95,71.182600,-155.506200,4,UAF SFOS,,,,,,,,,
300234011884250,UAFSFOS-MS-0011 ,10/14/2012 3:01:55 PM,71.338622,-155.007009,True,3,9.0,3.00,71.201080,-155.223200,6,UAF SFOS,,,,,,,,,
300234011884250,UAFSFOS-MS-0011 ,10/14/2012 2:00:08 PM,71.338661,-155.024868,True,3,9.0,3.00,71.209660,-155.832600,2,UAF SFOS,,,,,,,,,
300234011884250,UAFSFOS-MS-0011 ,10/14/2012 1:00:08 PM,71.339477,-155.043715,True,3,9.0,2.95,71.192460,-154.561480,2,UAF SFOS,,,,,,,,,
300234011884250,UAFSFOS-MS-0011 ,10/14/2012 12:02:07 PM,71.340519,-155.065759,False,3,9.0,2.90,71.201080,-155.223200,3,UAF SFOS,,,,,,,,,
300234011884250,UAFSFOS-MS-0011 ,10/14/2012 11:00:10 AM,71.341580,-155.090904,True,3,9.0,2.90,71.192460,-154.561480,4,UAF SFOS,,,,,,,,,
300234011884250,UAFSFOS-MS-0011 ,10/14/2012 10:00:08 AM,71.342119,-155.114309,True,3,9.0,2.90,71.182600,-155.506200,10,UAF SFOS,,,,,,,,,
300234011884250,UAFSFOS-MS-0011 ,10/14/2012 9:02:07 AM,71.342214,-155.134937,True,3,9.0,2.90,71.191170,-155.111480,17,UAF SFOS,,,,,,,,,
300234011884250,UAFSFOS-MS-0011 ,10/14/2012 8:00:39 AM,71.342605,-155.153743,True,3,9.0,2.90,71.182600,-155.506200,3,UAF SFOS,,,,,,,,,
300234011884250,UAFSFOS-MS-0011 ,10/14/2012 7:00:09 AM,71.343825,-155.170381,True,3,9.0,2.90,71.199700,-155.172440,2,UAF SFOS,,,,,,,,,
300234011884250,UAFSFOS-MS-0011 ,10/14/2012 6:01:25 AM,71.345664,-155.188901,True,3,9.0,2.90,71.218210,-155.144310,4,UAF SFOS,,,,,,,,,
300234011884250,UAFSFOS-MS-0011 ,10/14/2012 5:01:07 AM,71.348277,-155.210231,True,3,9.0,2.90,71.199700,-155.172440,3,UAF SFOS,,,,,,,,,
300234011884250,UAFSFOS-MS-0011 ,10/14/2012 4:00:09 AM,71.351305,-155.232329,True,3,9.0,2.90,71.199700,-155.172440,2,UAF SFOS,,,,,,,,,
300234011884250,UAFSFOS-MS-0011 ,10/14/2012 3:00:11 AM,71.354647,-155.254815,False,3,9.0,2.90,71.199700,-155.172440,4,UAF SFOS,,,,,,,,,
300234011884250,UAFSFOS-MS-0011 ,10/14/2012 2:01:56 AM,71.357916,-155.276251,True,3,9.0,3.00,71.225090,-155.144310,5,UAF SFOS,,,,,,,,,
300234011884250,UAFSFOS-MS-0011 ,10/14/2012 1:00:10 AM,71.362622,-155.297390,True,3,9.0,3.05,71.218210,-155.144310,4,UAF SFOS,,,,,,,,,
300234011884250,UAFSFOS-MS-0011 ,10/14/2012 12:01:31 AM,71.366839,-155.318890,True,3,9.0,3.10,71.294070,-157.254110,1449,UAF SFOS,,,,,,,,,
300234011884250,UAFSFOS-MS-0011 ,10/13/2012 11:01:07 PM,71.370639,-155.340173,True,3,9.0,3.10,71.242090,-155.266700,2,UAF SFOS,,,,,,,,,
300234011884250,UAFSFOS-MS-0011 ,10/13/2012 10:00:09 PM,71.373719,-155.359768,True,3,9.0,2.95,71.233600,-155.205450,8,UAF SFOS,,,,,,,,,
300234011884250,UAFSFOS-MS-0011 ,10/13/2012 9:00:08 PM,71.376783,-155.374929,False,3,9.0,3.15,71.233600,-155.205450,4,UAF SFOS,,,,,,,,,
300234011884250,UAFSFOS-MS-0011 ,10/13/2012 8:00:37 PM,71.380269,-155.389281,True,3,9.0,3.15,71.242090,-155.266700,5,UAF SFOS,,,,,,,,,
300234011884250,UAFSFOS-MS-0011 ,10/13/2012 7:00:09 PM,71.384002,-155.401859,True,3,9.0,3.25,71.208210,-155.233490,3,UAF SFOS,,,,,,,,,
300234011884250,UAFSFOS-MS-0011 ,10/13/2012 6:01:25 PM,71.388502,-155.415784,True,3,9.0,3.25,71.216680,-155.294650,3,UAF SFOS,,,,,,,,,
300234011884250,UAFSFOS-MS-0011 ,10/13/2012 5:00:11 PM,71.393619,-155.427959,True,3,9.0,3.20,71.192220,-156.172410,100,UAF SFOS,,,,,,,,,
300234011884250,UAFSFOS-MS-0011 ,10/13/2012 4:03:57 PM,71.398566,-155.439512,True,3,9.0,3.20,71.223550,-155.294650,2,UAF SFOS,,,,,,,,,
300234011884250,UAFSFOS-MS-0011 ,10/13/2012 3:02:10 PM,71.403641,-155.452829,True,3,9.0,3.25,71.197230,-157.295220,102,UAF SFOS,,,,,,,,,
300234011884250,UAFSFOS-MS-0011 ,10/13/2012 2:00:08 PM,71.408322,-155.466023,True,3,9.0,3.30,71.260630,-155.238640,4,UAF SFOS,,,,,,,,,
300234011884250,UAFSFOS-MS-0011 ,10/13/2012 1:02:32 PM,71.412030,-155.476240,True,3,9.0,3.30,71.242090,-155.266700,2,UAF SFOS,,,,,,,,,
300234011884250,UAFSFOS-MS-0011 ,10/13/2012 12:01:27 PM,71.415964,-155.485512,True,3,9.0,3.35,71.269100,-155.300070,10,UAF SFOS,,,,,,,,,
300234011884250,UAFSFOS-MS-0011 ,10/13/2012 11:00:11 AM,71.419727,-155.493176,True,3,9.0,3.35,71.260630,-155.238640,5,UAF SFOS,,,,,,,,,
300234011884250,UAFSFOS-MS-0011 ,10/13/2012 10:01:25 AM,71.422652,-155.500381,True,3,9.0,3.40,71.242090,-155.266700,3,UAF SFOS,,,,,,,,,
300234011884250,UAFSFOS-MS-0011 ,10/13/2012 9:01:07 AM,71.426097,-155.505273,True,3,9.0,3.40,71.250540,-155.328040,2,UAF SFOS,,,,,,,,,
300234011884250,UAFSFOS-MS-0011 ,10/13/2012 8:00:20 AM,71.430833,-155.510181,True,3,9.0,3.45,71.258970,-155.389480,3,UAF SFOS,,,,,,,,,
300234011884250,UAFSFOS-MS-0011 ,10/13/2012 7:02:03 AM,71.434380,-155.512756,True,3,9.0,3.45,71.242090,-155.266700,5,UAF SFOS,,,,,,,,,
300234011884250,UAFSFOS-MS-0011 ,10/13/2012 6:03:08 AM,71.439727,-155.514045,True,3,9.0,3.45,71.250540,-155.328040,3,UAF SFOS,,,,,,,,,
300234011884250,UAFSFOS-MS-0011 ,10/13/2012 5:00:07 AM,71.445450,-155.518023,True,3,9.0,3.50,71.277540,-155.361600,2,UAF SFOS,,,,,,,,,
300234011884250,UAFSFOS-MS-0011 ,10/13/2012 4:01:07 AM,71.451066,-155.522545,True,3,9.0,3.50,71.157100,-150.294190,196,UAF SFOS,,,,,,,,,
300234011884250,UAFSFOS-MS-0011 ,10/13/2012 3:00:08 AM,71.456014,-155.526654,True,3,9.0,3.50,71.287660,-155.272000,4,UAF SFOS,,,,,,,,,
300234011884250,UAFSFOS-MS-0011 ,10/13/2012 2:00:55 AM,71.459858,-155.531434,True,3,9.0,3.45,71.287660,-155.272000,3,UAF SFOS,,,,,,,,,
300234011884250,UAFSFOS-MS-0011 ,10/13/2012 1:00:07 AM,71.463975,-155.533887,True,3,9.0,3.45,71.302940,-155.333620,5,UAF SFOS,,,,,,,,,
300234011884250,UAFSFOS-MS-0011 ,10/13/2012 12:01:02 AM,71.467977,-155.534037,True,3,9.0,3.45,71.269100,-155.300070,2,UAF SFOS,,,,,,,,,
300234011884250,UAFSFOS-MS-0011 ,10/12/2012 11:01:32 PM,71.471986,-155.534609,True,3,9.0,3.50,71.294490,-155.272000,6,UAF SFOS,,,,,,,,,
300234011884250,UAFSFOS-MS-0011 ,10/12/2012 10:00:38 PM,71.476283,-155.534640,True,3,9.0,3.50,71.269100,-155.300070,5,UAF SFOS,,,,,,,,,
300234011884250,UAFSFOS-MS-0011 ,10/12/2012 9:00:10 PM,71.481052,-155.535009,True,3,9.0,3.45,71.457620,-151.354380,157,UAF SFOS,,,,,,,,,
300234011884250,UAFSFOS-MS-0011 ,10/12/2012 8:00:57 PM,71.485525,-155.537909,True,3,9.0,3.45,71.294490,-155.272000,3,UAF SFOS,,,,,,,,,
300234011884250,UAFSFOS-MS-0011 ,10/12/2012 7:02:01 PM,71.490011,-155.543592,True,3,9.0,3.45,71.311360,-155.395340,4,UAF SFOS,,,,,,,,,
300234011884250,UAFSFOS-MS-0011 ,10/12/2012 6:01:02 PM,71.494519,-155.549984,True,3,9.0,3.45,71.277540,-155.361600,3,UAF SFOS,,,,,,,,,
300234011884250,UAFSFOS-MS-0011 ,10/12/2012 5:00:09 PM,71.498247,-155.559170,True,3,9.0,3.50,71.325550,-154.450410,72,UAF SFOS,,,,,,,,,
300234011884250,UAFSFOS-MS-0011 ,10/12/2012 4:02:07 PM,71.500958,-155.566973,True,3,9.0,3.55,71.294490,-155.272000,2,UAF SFOS,,,,,,,,,
300234011884250,UAFSFOS-MS-0011 ,10/12/2012 3:02:08 PM,71.502075,-155.573295,True,3,9.0,3.60,71.294490,-155.272000,2,UAF SFOS,,,,,,,,,
300234011884250,UAFSFOS-MS-0011 ,10/12/2012 2:00:13 PM,71.501680,-155.580095,False,3,9.0,3.60,71.277540,-155.361600,2,UAF SFOS,,,,,,,,,
300234011884250,UAFSFOS-MS-0011 ,10/12/2012 1:00:09 PM,71.499058,-155.584715,False,3,9.0,3.60,71.321510,-155.305540,4,UAF SFOS,,,,,,,,,
300234011884250,UAFSFOS-MS-0011 ,10/12/2012 12:00:37 PM,71.495247,-155.581270,True,3,9.0,3.60,71.287660,-155.272000,2,UAF SFOS,,,,,,,,,
300234011884250,UAFSFOS-MS-0011 ,10/12/2012 11:00:07 AM,71.490980,-155.568417,True,3,9.0,3.60,71.277540,-155.361600,3,UAF SFOS,,,,,,,,,
300234011884250,UAFSFOS-MS-0011 ,10/12/2012 10:01:37 AM,71.487750,-155.550431,False,3,9.0,3.55,71.321510,-155.305540,6,UAF SFOS,,,,,,,,,
300234011884250,UAFSFOS-MS-0011 ,10/12/2012 9:02:07 AM,71.485916,-155.527715,True,3,9.0,3.65,71.302940,-155.333620,5,UAF SFOS,,,,,,,,,
300234011884250,UAFSFOS-MS-0011 ,10/12/2012 8:00:56 AM,71.487158,-155.500267,True,3,9.0,3.75,71.260630,-155.238640,16,UAF SFOS,,,,,,,,,
300234011884250,UAFSFOS-MS-0011 ,10/12/2012 7:00:12 AM,71.491163,-155.476873,True,3,9.0,3.85,71.269100,-155.300070,3,UAF SFOS,,,,,,,,,
300234011884250,UAFSFOS-MS-0011 ,10/12/2012 6:01:32 AM,71.497933,-155.461256,True,3,9.0,3.90,71.340070,-155.277360,11,UAF SFOS,,,,,,,,,
300234011884250,UAFSFOS-MS-0011 ,10/12/2012 5:00:08 AM,71.506044,-155.462070,True,3,9.0,3.95,71.313030,-155.243830,7,UAF SFOS,,,,,,,,,
300234011884250,UAFSFOS-MS-0011 ,10/12/2012 4:03:01 AM,71.513455,-155.473090,True,3,9.0,3.95,71.302940,-155.333620,2,UAF SFOS,,,,,,,,,
300234011884250,UAFSFOS-MS-0011 ,10/12/2012 3:00:10 AM,71.518661,-155.499615,True,3,9.0,4.10,71.294490,-155.272000,3,UAF SFOS,,,,,,,,,
300234011884250,UAFSFOS-MS-0011 ,10/12/2012 2:02:31 AM,71.520736,-155.534937,False,3,9.0,4.10,71.215660,-151.137090,167,UAF SFOS,,,,,,,,,
300234011884250,UAFSFOS-MS-0011 ,10/12/2012 1:02:01 AM,71.520525,-155.590106,True,3,9.0,4.05,71.311360,-155.395340,3,UAF SFOS,,,,,,,,,
300234011884250,UAFSFOS-MS-0011 ,10/12/2012 12:00:38 AM,71.520108,-155.653234,False,3,9.0,3.90,71.211570,-152.791100,144,UAF SFOS,,,,,,,,,
300234011884250,UAFSFOS-MS-0011 ,10/11/2012 11:00:09 PM,71.518236,-155.725367,False,3,9.0,3.55,71.292780,-155.423230,6,UAF SFOS,,,,,,,,,
300234011884250,UAFSFOS-MS-0011 ,10/11/2012 10:01:31 PM,71.514697,-155.806540,False,3,9.0,3.30,71.319750,-155.457160,4,UAF SFOS,,,,,,,,,
300234011884250,UAFSFOS-MS-0011 ,10/11/2012 9:00:07 PM,71.512727,-155.900165,True,3,9.0,2.85,71.301150,-155.484960,2,UAF SFOS,,,,,,,,,
300234011884250,UAFSFOS-MS-0011 ,10/11/2012 8:01:38 PM,71.513188,-156.001720,True,3,9.0,2.75,71.309490,-155.546800,3,UAF SFOS,,,,,,,,,
300234011884250,UAFSFOS-MS-0011 ,10/11/2012 7:02:09 PM,71.513627,-156.100970,True,3,9.0,2.75,71.461110,-152.215310,150,UAF SFOS,,,,,,,,,
300234011884250,UAFSFOS-MS-0011 ,10/11/2012 6:01:39 PM,71.514827,-156.204939,True,3,9.0,2.70,71.296980,-156.187480,3,UAF SFOS,,,,,,,,,
300234011884250,UAFSFOS-MS-0011 ,10/11/2012 5:01:32 PM,71.516680,-156.314667,True,3,9.0,2.90,71.305150,-156.249530,2,UAF SFOS,,,,,,,,,
300234011884250,UAFSFOS-MS-0011 ,10/11/2012 4:00:09 PM,71.518686,-156.427223,True,3,9.0,3.00,71.323840,-156.222370,4,UAF SFOS,,,,,,,,,
300234011884250,UAFSFOS-MS-0011 ,10/11/2012 3:01:25 PM,71.522591,-156.526637,False,3,9.0,2.90,71.321410,-156.373910,5,UAF SFOS,,,,,,,,,
300234011884250,UAFSFOS-MS-0011 ,10/11/2012 2:00:10 PM,71.524694,-156.629012,True,3,9.0,3.35,71.310740,-156.463040,2,UAF SFOS,,,,,,,,,
300234011884250,UAFSFOS-MS-0011 ,10/11/2012 1:01:31 PM,71.528869,-156.729706,True,3,9.0,3.45,71.302680,-156.400790,2,UAF SFOS,,,,,,,,,
300234011884250,UAFSFOS-MS-0011 ,10/11/2012 12:00:55 PM,71.534280,-156.832048,True,3,9.0,3.05,71.300010,-156.551980,10,UAF SFOS,,,,,,,,,
300234011884250,UAFSFOS-MS-0011 ,10/11/2012 11:00:37 AM,71.538325,-156.933523,False,3,9.0,2.80,71.388920,-158.195210,84,UAF SFOS,,,,,,,,,
300234011884250,UAFSFOS-MS-0011 ,10/11/2012 10:00:08 AM,71.539083,-157.028961,True,3,9.0,3.30,71.307990,-157.143300,6,UAF SFOS,,,,,,,,,
300234011884250,UAFSFOS-MS-0011 ,10/11/2012 9:00:08 AM,71.532544,-157.130275,True,3,9.0,3.45,71.476480,-161.556600,24,UAF SFOS,,,,,,,,,
300234011884250,UAFSFOS-MS-0011 ,10/11/2012 8:01:31 AM,71.519033,-157.224622,True,3,9.0,3.50,71.305030,-157.165530,5,UAF SFOS,,,,,,,,,
300234011884250,UAFSFOS-MS-0011 ,10/11/2012 7:00:10 AM,71.498855,-157.320256,True,3,9.0,3.55,71.287240,-157.254110,2,UAF SFOS,,,,,,,,,
300234011884250,UAFSFOS-MS-0011 ,10/11/2012 6:00:07 AM,71.473194,-157.403911,False,3,9.0,3.50,71.268400,-157.280040,2,UAF SFOS,,,,,,,,,
300234011884250,UAFSFOS-MS-0011 ,10/11/2012 5:00:09 AM,71.446558,-157.474806,False,3,9.0,3.25,71.475870,-162.174160,186,UAF SFOS,,,,,,,,,
300234011884250,UAFSFOS-MS-0011 ,10/11/2012 4:00:56 AM,71.420775,-157.531067,True,3,9.0,2.35,71.257350,-157.368240,2,UAF SFOS,,,,,,,,,
300234011884250,UAFSFOS-MS-0011 ,10/11/2012 3:00:38 AM,71.404052,-157.574978,False,3,9.0,1.95,71.238490,-157.393900,1,UAF SFOS,,,,,,,,,
300234011884250,UAFSFOS-MS-0011 ,10/11/2012 2:00:12 AM,71.391002,-157.620028,True,3,9.0,1.90,71.246230,-157.456250,3,UAF SFOS,,,,,,,,,
300234011884250,UAFSFOS-MS-0011 ,10/11/2012 1:00:09 AM,71.379261,-157.667761,False,3,9.0,1.95,71.230730,-157.331640,3,UAF SFOS,,,,,,,,,
300234011884250,UAFSFOS-MS-0011 ,10/11/2012 12:00:37 AM,71.367505,-157.712025,False,3,9.0,1.90,71.193910,-157.444930,5,UAF SFOS,,,,,,,,,
300234011884250,UAFSFOS-MS-0011 ,10/10/2012 11:00:08 PM,71.357808,-157.757042,False,3,9.0,1.85,71.220490,-157.481720,3,UAF SFOS,,,,,,,,,
300234011884250,UAFSFOS-MS-0011 ,10/10/2012 10:00:08 PM,71.350080,-157.802383,False,3,9.0,1.85,71.131590,-162.288000,189,UAF SFOS,,,,,,,,,
300234011884250,UAFSFOS-MS-0011 ,10/10/2012 9:01:01 PM,71.342672,-157.848583,False,3,9.0,1.80,71.585970,-149.451140,302,UAF SFOS,,,,,,,,,
300234011884250,UAFSFOS-MS-0011 ,10/10/2012 8:01:07 PM,71.334677,-157.894658,False,3,9.0,1.80,71.209280,-157.569360,6,UAF SFOS,,,,,,,,,
300234011884250,UAFSFOS-MS-0011 ,10/10/2012 7:00:07 PM,71.327889,-157.940967,False,3,9.0,1.75,71.190390,-157.594550,2,UAF SFOS,,,,,,,,,
300234011884250,UAFSFOS-MS-0011 ,10/10/2012 6:00:08 PM,71.323044,-157.985853,False,3,9.0,1.75,71.190390,-157.594550,4,UAF SFOS,,,,,,,,,
300234011884250,UAFSFOS-MS-0011 ,10/10/2012 5:00:07 PM,71.319372,-158.029944,False,3,9.0,1.80,71.182740,-157.532380,18,UAF SFOS,,,,,,,,,
300234011884250,UAFSFOS-MS-0011 ,10/10/2012 4:01:01 PM,71.315686,-158.073069,False,3,9.0,1.75,71.179100,-158.818100,3,UAF SFOS,,,,,,,,,
300234011884250,UAFSFOS-MS-0011 ,10/10/2012 3:00:07 PM,71.311472,-158.118889,True,3,9.0,1.70,71.179100,-158.818100,3,UAF SFOS,,,,,,,,,
300234011884250,UAFSFOS-MS-0011 ,10/10/2012 2:00:07 PM,71.307077,-158.162267,True,3,9.0,1.65,71.179100,-158.818100,3,UAF SFOS,,,,,,,,,
300234011884250,UAFSFOS-MS-0011 ,10/10/2012 1:00:06 PM,71.303666,-158.204550,True,3,9.0,1.70,71.160200,-158.106730,3,UAF SFOS,,,,,,,,,
300234011884250,UAFSFOS-MS-0011 ,10/10/2012 11:01:08 AM,71.300341,-158.268508,True,3,9.0,1.65,71.186670,-158.144060,3,UAF SFOS,,,,,,,,,
300234011884250,UAFSFOS-MS-0011 ,10/10/2012 10:00:07 AM,71.299400,-158.289633,False,3,9.0,1.70,71.167750,-158.168880,2,UAF SFOS,,,,,,,,,
300234011884250,UAFSFOS-MS-0011 ,10/10/2012 9:00:08 AM,71.299255,-158.306703,True,3,9.0,1.70,71.175270,-158.231130,2,UAF SFOS,,,,,,,,,
300234011884250,UAFSFOS-MS-0011 ,10/10/2012 8:01:38 AM,71.301264,-158.323389,True,3,9.0,1.75,71.175270,-158.231130,3,UAF SFOS,,,,,,,,,
300234011884250,UAFSFOS-MS-0011 ,10/10/2012 7:00:12 AM,71.303111,-158.340203,True,3,9.0,1.75,71.217560,-159.368730,84,UAF SFOS,,,,,,,,,
300234011884250,UAFSFOS-MS-0011 ,10/10/2012 6:00:08 AM,71.304083,-158.355567,True,3,9.0,1.80,71.186670,-158.144060,1,UAF SFOS,,,,,,,,,
300234011884250,UAFSFOS-MS-0011 ,10/10/2012 5:00:09 AM,71.303439,-158.375083,True,3,9.0,1.85,71.182760,-158.293460,2,UAF SFOS,,,,,,,,,
300234011884250,UAFSFOS-MS-0011 ,10/10/2012 4:01:07 AM,71.303277,-158.393617,True,3,9.0,1.95,71.182760,-158.293460,2,UAF SFOS,,,,,,,,,
300234011884250,UAFSFOS-MS-0011 ,10/10/2012 3:01:07 AM,71.304025,-158.409650,True,3,9.0,1.70,71.369830,-162.558410,178,UAF SFOS,,,,,,,,,
300234011884250,UAFSFOS-MS-0011 ,10/10/2012 2:00:08 AM,71.305155,-158.425033,True,3,9.0,1.65,71.194210,-158.206400,4,UAF SFOS,,,,,,,,,
300234011884250,UAFSFOS-MS-0011 ,10/10/2012 1:00:09 AM,71.306377,-158.440758,True,3,9.0,1.65,71.201710,-158.268830,4,UAF SFOS,,,,,,,,,
300234011884250,UAFSFOS-MS-0011 ,10/10/2012 12:01:25 AM,71.308158,-158.455086,True,3,9.0,1.65,71.175270,-158.231130,2,UAF SFOS,,,,,,,,,
300234011884250,UAFSFOS-MS-0011 ,10/9/2012 11:00:39 PM,71.311544,-158.470142,True,3,9.0,1.65,71.201710,-158.268830,5,UAF SFOS,,,,,,,,,
300234011884250,UAFSFOS-MS-0011 ,10/9/2012 10:00:08 PM,71.315941,-158.485253,True,3,9.0,1.65,71.201710,-158.268830,3,UAF SFOS,,,,,,,,,
300234011884250,UAFSFOS-MS-0011 ,10/9/2012 9:00:11 PM,71.320266,-158.501625,True,3,9.0,1.65,71.190210,-158.355890,3,UAF SFOS,,,,,,,,,
300234011884250,UAFSFOS-MS-0011 ,10/9/2012 8:01:01 PM,71.324250,-158.517947,True,3,9.0,1.65,71.194210,-158.206400,6,UAF SFOS,,,,,,,,,
300234011884250,UAFSFOS-MS-0011 ,10/9/2012 7:00:08 PM,71.327689,-158.531233,True,3,9.0,1.65,71.190210,-158.355890,3,UAF SFOS,,,,,,,,,
300234011884250,UAFSFOS-MS-0011 ,10/9/2012 6:02:01 PM,71.331577,-158.537905,True,3,9.0,1.70,71.190210,-158.355890,2,UAF SFOS,,,,,,,,,
300234011884250,UAFSFOS-MS-0011 ,10/9/2012 5:00:08 PM,71.336777,-158.544694,True,3,9.0,1.65,71.568210,-150.445850,290,UAF SFOS,,,,,,,,,
300234011884250,UAFSFOS-MS-0011 ,10/9/2012 4:03:02 PM,71.341916,-158.547930,True,3,9.5,1.65,71.190210,-158.355890,3,UAF SFOS,,,,,,,,,
300234011884250,UAFSFOS-MS-0011 ,10/9/2012 3:00:07 PM,71.347833,-158.546936,True,3,9.5,1.65,71.216620,-158.393960,11,UAF SFOS,,,,,,,,,
300234011884250,UAFSFOS-MS-0011 ,10/9/2012 2:00:22 PM,71.484136,-158.263275,True,3,9.5,1.70,71.201710,-158.268830,2,UAF SFOS,,,,,,,,,
300234011884250,UAFSFOS-MS-0011 ,10/9/2012 1:01:07 PM,71.360964,-158.536094,True,3,9.0,1.75,71.209180,-158.331350,2,UAF SFOS,,,,,,,,,
300234011884250,UAFSFOS-MS-0011 ,10/9/2012 12:02:55 PM,71.367091,-158.531786,True,3,9.5,1.85,71.209180,-158.331350,10,UAF SFOS,,,,,,,,,
300234011884250,UAFSFOS-MS-0011 ,10/9/2012 11:00:08 AM,71.374197,-158.525078,True,3,9.5,1.95,71.209180,-158.331350,3,UAF SFOS,,,,,,,,,
300234011884250,UAFSFOS-MS-0011 ,10/9/2012 10:03:02 AM,71.380411,-158.518305,True,3,9.5,1.90,71.235020,-158.306730,3,UAF SFOS,,,,,,,,,
300234011884250,UAFSFOS-MS-0011 ,10/9/2012 9:03:37 AM,71.386644,-158.510878,True,3,9.5,1.95,71.227540,-158.244110,3,UAF SFOS,,,,,,,,,
300234011884250,UAFSFOS-MS-0011 ,10/9/2012 8:00:15 AM,71.392900,-158.505153,True,3,9.5,1.95,71.228150,-158.306730,7,UAF SFOS,,,,,,,,,
300234011884250,UAFSFOS-MS-0011 ,10/9/2012 7:00:10 AM,71.397139,-158.501403,True,3,9.5,2.05,71.216920,-158.317100,1708,UAF SFOS,,,,,,,,,
300234011884250,UAFSFOS-MS-0011 ,10/9/2012 6:03:22 AM,71.400575,-158.497547,True,3,9.5,2.20,71.220670,-158.244110,2,UAF SFOS,,,,,,,,,
300234011884250,UAFSFOS-MS-0011 ,10/9/2012 5:03:57 AM,71.404455,-158.493069,True,3,9.5,2.25,71.227540,-158.244110,3,UAF SFOS,,,,,,,,,
300234011884250,UAFSFOS-MS-0011 ,10/9/2012 4:01:08 AM,71.407566,-158.486394,True,3,9.5,2.20,71.246490,-158.219300,3,UAF SFOS,,,,,,,,,
300234011884250,UAFSFOS-MS-0011 ,10/9/2012 3:00:10 AM,71.410558,-158.473825,True,3,9.5,2.15,71.353140,-161.102240,118,UAF SFOS,,,,,,,,,
300234011884250,UAFSFOS-MS-0011 ,10/9/2012 2:00:08 AM,71.415394,-158.460061,True,3,9.5,2.10,71.235020,-158.306730,2,UAF SFOS,,,,,,,,,